Tracking 30970 objects as of 3-Jul-2025
HD Live streaming from Space Station
objects crossing your sky now

STARLINK-6064

Track STARLINK-6064 now!
10-day predictions
STARLINK-6064 is classified as:


NORAD ID: 56805
Int'l Code: 2023-078AQ
Perigee: 576.8 km
Apogee: 581.5 km
Inclination: 70.0 °
Period: 96.1 minutes
Semi major axis: 6950 km
RCS: Unknown
Launch date: May 31, 2023
Source: United States (US)
Launch site: AIR FORCE WESTERN TEST RANGE (AFWTR)
Your satellite tracking list
Your tracking list is empty




NASA's NSSDC Master Catalog

Two Line Element Set (TLE):
1 56805U 23078AQ  25183.86719608  .00000352  00000-0  37311-4 0  9997
2 56805  69.9986 234.2960 0003373 270.0529  90.0244 14.98343990116018
Source of the keplerian elements: AFSPC